GW2440 Weather Reports


Display with metric or nautical units.
time (UTC)temp
F
wind
direction
speed
MPH
gust
MPH
rain 1hr
in
rain 24hr
in
rain mn
in
humidity
%
barometer
mb
20260831195420 83 162 4.0 5.0 0.00 0.00 0.00 91 1018.2
20260831194915 83 196 3.0 3.0 0.00 0.00 0.00 91 1018.2
20260831194411 84 194 2.0 2.0 0.00 0.00 0.00 89 1018.2
20260831193910 85 95 2.0 3.0 0.00 0.00 0.00 88 1018.2
20260831193405 85 154 2.0 2.0 0.00 0.00 0.00 87 1018.6
20260831192900 85 153 1.0 1.0 0.00 0.00 0.00 86 1018.9
20260831192401 85 155 1.0 1.0 0.00 0.00 0.00 85 1018.6
20260831191856 85 96 1.0 1.0 0.00 0.00 0.00 85 1018.6
20260831191352 85 151 0.0 0.0 0.00 0.00 0.00 85 1018.6
20260831190848 84 150 2.0 2.0 0.00 0.00 0.00 85 1018.6
20260831190347 84 101 1.0 2.0 0.00 0.00 0.00 85 1018.6
20260831185847 84 98 1.0 2.0 0.00 0.00 0.00 88 1018.6
20260831185343 84 79 1.0 1.0 0.00 0.00 0.00 88 1018.6
20260831184842 83 48 1.0 2.0 0.00 0.00 0.00 89 1018.6
20260831184338 84 47 1.0 1.0 0.00 0.00 0.00 88 1018.9
20260831183833 83 85 2.0 2.0 0.00 0.00 0.00 88 1018.9
20260831183332 84 55 3.0 5.0 0.00 0.00 0.00 87 1018.9
20260831182832 84 40 2.0 3.0 0.00 0.00 0.00 85 1018.9
20260831182327 84 69 4.0 6.0 0.00 0.00 0.00 82 1018.9
20260831181822 84 42 5.0 7.0 0.00 0.00 0.00 80 1018.9
20260831181317 84 45 6.0 7.0 0.00 0.00 0.00 80 1018.6
20260831180812 84 48 8.0 8.0 0.00 0.00 0.00 80 1018.6
20260831180307 83 60 4.0 6.0 0.00 0.00 0.00 83 1018.9
20260831175806 83 63 3.0 5.0 0.00 0.00 0.00 84 1018.6
20260831175306 83 61 5.0 7.0 0.00 0.00 0.00 83 1018.9
20260831174758 83 46 4.0 5.0 0.00 0.00 0.00 84 1018.6
20260831174254 83 46 9.0 10.0 0.00 0.00 0.00 86 1018.9
20260831173753 83 47 10.0 15.0 0.00 0.00 0.00 87 1018.6
20260831173247 84 45 7.0 9.0 0.00 0.00 0.00 87 1018.9
20260831172742 83 49 11.0 14.0 0.00 0.00 0.00 87 1018.9
20260831172238 84 35 8.0 11.0 0.00 0.00 0.00 86 1018.9
20260831171737 85 48 10.0 16.0 0.00 0.00 0.00 85 1019.2
20260831171235 85 50 11.0 13.0 0.00 0.00 0.00 84 1019.6
20260831170731 84 37 9.0 15.0 0.00 0.00 0.00 85 1019.6
20260831170227 84 36 12.0 16.0 0.00 0.00 0.00 85 1019.6
20260831165723 86 85 8.0 10.0 0.00 0.00 0.00 83 1019.6
20260831165220 90 14 6.0 7.0 0.00 0.00 0.00 72 1019.2
20260831164715 89 35 3.0 3.0 0.00 0.00 0.00 74 1019.2
20260831164212 89 82 4.0 5.0 0.00 0.00 0.00 73 1019.2
20260831163706 90 45 4.0 5.0 0.00 0.00 0.00 72 1019.6
20260831163202 89 76 2.0 2.0 0.00 0.00 0.00 73 1019.6
20260831162701 89 58 5.0 6.0 0.00 0.00 0.00 71 1019.2
20260831162200 89 73 2.0 2.0 0.00 0.00 0.00 72 1019.2
20260831161655 90 172 0.0 0.0 0.00 0.00 0.00 73 1019.2
20260831161152 90 330 3.0 3.0 0.00 0.00 0.00 72 1019.6
20260831160651 88 346 2.0 3.0 0.00 0.00 0.00 76 1019.6
20260831160146 88 45 5.0 7.0 0.00 0.00 0.00 76 1019.9
20260831155645 88 25 1.0 2.0 0.00 0.00 0.00 76 1019.9
20260831155141 88 61 3.0 5.0 0.00 0.00 0.00 79 1019.9
20260831154636 88 30 3.0 3.0 0.00 0.00 0.00 78 1019.9
20260831154132 90 57 2.0 2.0 0.00 0.00 0.00 76 1019.9
20260831153631 87 36 0.0 1.0 0.00 0.00 0.00 79 1019.9
20260831153128 87 48 2.0 2.0 0.00 0.00 0.00 80 1019.9
20260831152623 86 66 1.0 1.0 0.00 0.00 0.00 82 1019.9
20260831152119 86 98 1.0 1.0 0.00 0.00 0.00 83 1019.9
20260831151619 86 117 1.0 1.0 0.00 0.00 0.00 82 1019.9
20260831151113 87 200 0.0 0.0 0.00 0.00 0.00 83 1019.6
20260831150608 87 139 0.0 0.0 0.00 0.00 0.00 82 1019.9
20260831150104 88 207 1.0 1.0 0.00 0.00 0.00 79 1019.6
20260831145558 87 18 0.0 1.0 0.00 0.00 0.00 81 1019.9
20260831145054 87 167 1.0 2.0 0.00 0.00 0.00 82 1019.6
20260831144549 86 197 1.0 2.0 0.00 0.00 0.00 83 1019.6
20260831144045 85 149 1.0 1.0 0.00 0.00 0.00 84 1019.6
20260831143539 86 62 1.0 1.0 0.00 0.00 0.00 84 1019.6
20260831143035 86 318 0.0 0.0 0.00 0.00 0.00 84 1019.6
20260831142532 86 136 0.0 0.0 0.00 0.00 0.00 85 1019.6
20260831142027 86 157 1.0 1.0 0.00 0.00 0.00 84 1019.6
20260831141525 85 44 3.0 3.0 0.00 0.00 0.00 87 1019.6
20260831141021 86 48 3.0 3.0 0.00 0.00 0.00 87 1019.9
20260831140520 86 44 3.0 3.0 0.00 0.00 0.00 85 1019.9
20260831140015 86 353 2.0 2.0 0.00 0.00 0.00 87 1019.9
20260831135512 86 313 2.0 2.0 0.00 0.00 0.00 88 1019.6
20260831135008 85 320 2.0 2.0 0.00 0.00 0.00 90 1019.6
20260831134504 84 62 1.0 2.0 0.00 0.00 0.00 92 1019.6
20260831134003 84 36 2.0 2.0 0.00 0.00 0.00 92 1019.6
20260831133458 84 54 2.0 2.0 0.00 0.00 0.00 93 1019.6
20260831132953 84 72 1.0 2.0 0.00 0.00 0.00 92 1019.6
20260831132449 84 15 2.0 2.0 0.00 0.00 0.00 91 1019.6
20260831131948 83 90 0.0 1.0 0.00 0.00 0.00 93 1019.6
20260831131443 83 69 1.0 1.0 0.00 0.00 0.00 93 1019.6
20260831130939 83 124 0.0 1.0 0.00 0.00 0.00 94 1019.6
20260831130434 82 57 1.0 1.0 0.00 0.00 0.00 96 1019.6
20260831125933 82 72 3.0 3.0 0.00 0.00 0.00 96 1019.6
20260831125433 82 85 1.0 1.0 0.00 0.00 0.00 96 1019.2
20260831124929 81 334 1.0 2.0 0.00 0.00 0.00 97 1019.6
20260831124425 81 63 2.0 2.0 0.00 0.00 0.00 99 1019.6
20260831123921 80 59 2.0 2.0 0.00 0.00 0.00 99 1018.9
20260831123419 80 39 1.0 2.0 0.00 0.00 0.00 99 1019.2
20260831122914 80 51 1.0 2.0 0.00 0.00 0.00 99 1019.2
20260831122409 79 99 0.0 0.0 0.00 0.00 0.00 99 1019.2
20260831121904 79 86 1.0 1.0 0.00 0.00 0.00 99 1018.9
20260831121400 78 40 2.0 2.0 0.00 0.00 0.00 99 1018.9
20260831120855 78 82 1.0 1.0 0.00 0.00 0.00 99 1018.9
20260831120350 78 66 1.0 1.0 0.00 0.00 0.00 99 1018.9
20260831115845 78 64 0.0 1.0 0.00 0.00 0.00 99 1018.9
20260831115342 77 59 1.0 1.0 0.00 0.00 0.00 99 1018.9
20260831114841 77 23 0.0 0.0 0.00 0.00 0.00 99 1018.9
20260831114340 77 33 1.0 1.0 0.00 0.00 0.00 99 1018.9
20260831113835 77 79 0.0 0.0 0.00 0.00 0.00 99 1018.9
20260831113335 76 104 0.0 0.0 0.00 0.00 0.00 99 1018.9
20260831112830 76 104 0.0 0.0 0.00 0.00 0.00 99 1018.9
20260831112325 76 105 0.0 0.0 0.00 0.00 0.00 99 1018.6
20260831111820 76 105 0.0 0.0 0.00 0.00 0.00 99 1018.6
20260831111317 76 104 0.0 0.0 0.00 0.00 0.00 99 1018.6
20260831110812 76 104 0.0 0.0 0.00 0.00 0.00 99 1018.6
20260831110307 76 104 0.0 0.0 0.00 0.00 0.00 99 1018.6
20260831105805 76 106 0.0 0.0 0.00 0.00 0.00 99 1018.6
20260831105256 76 105 0.0 0.0 0.00 0.00 0.00 99 1018.2
20260831104755 76 111 0.0 0.0 0.00 0.00 0.00 99 1018.2
20260831104252 76 110 0.0 0.0 0.00 0.00 0.00 99 1017.9
20260831103752 75 122 0.0 0.0 0.00 0.00 0.00 99 1017.9
20260831103248 75 122 0.0 0.0 0.00 0.00 0.00 99 1017.9
20260831102747 76 121 0.0 0.0 0.00 0.00 0.00 99 1017.9
20260831102242 75 131 0.0 0.0 0.00 0.00 0.00 99 1018.2
20260831101738 75 131 0.0 0.0 0.00 0.00 0.00 99 1017.9
20260831101233 75 131 0.0 0.0 0.00 0.00 0.00 99 1018.2
20260831100729 75 131 0.0 0.0 0.00 0.00 0.00 99 1017.9
20260831100219 75 131 0.0 0.0 0.00 0.00 0.00 99 1017.9
20260831095717 75 131 0.0 0.0 0.00 0.00 0.00 99 1017.5
20260831095213 76 131 0.0 0.0 0.00 0.00 0.00 99 1017.9
20260831094707 76 130 0.0 0.0 0.00 0.00 0.00 99 1017.5
20260831094204 75 133 0.0 0.0 0.00 0.00 0.00 99 1017.5
20260831093659 76 133 0.0 0.0 0.00 0.00 0.00 99 1017.9
20260831093154 75 133 0.0 0.0 0.00 0.00 0.00 99 1017.9
20260831092651 76 133 0.0 0.0 0.00 0.00 0.00 99 1017.9
20260831092147 76 133 0.0 0.0 0.00 0.00 0.00 99 1017.9
20260831091646 76 133 0.0 0.0 0.00 0.00 0.00 99 1017.9
20260831091142 76 132 0.0 0.0 0.00 0.00 0.00 99 1017.9
20260831090637 76 132 0.0 0.0 0.00 0.00 0.00 99 1017.9
20260831090133 76 132 0.0 0.0 0.00 0.00 0.00 99 1017.9
20260831085627 76 132 0.0 0.0 0.00 0.00 0.00 99 1017.5
20260831085123 76 142 0.0 0.0 0.00 0.00 0.00 99 1017.5
20260831084619 76 140 0.0 0.0 0.00 0.00 0.00 99 1017.5
20260831084115 76 203 0.0 0.0 0.00 0.00 0.00 99 1017.9
20260831083611 76 166 0.0 0.0 0.00 0.00 0.00 99 1017.9
20260831083106 76 166 0.0 0.0 0.00 0.00 0.00 99 1017.9
20260831082604 76 164 0.0 0.0 0.00 0.00 0.00 99 1018.2
20260831082100 76 165 0.0 0.0 0.00 0.00 0.00 99 1017.9
20260831081556 75 166 0.0 0.0 0.00 0.00 0.00 99 1017.9
20260831081051 75 166 0.0 0.0 0.00 0.00 0.00 99 1017.9
20260831080551 76 167 0.0 0.0 0.00 0.00 0.00 99 1018.2
20260831080047 76 166 0.0 0.0 0.00 0.00 0.00 99 1018.2
20260831075542 76 166 0.0 0.0 0.00 0.00 0.00 99 1018.2
20260831075038 76 166 0.0 0.0 0.00 0.00 0.00 99 1017.9
20260831074537 76 166 0.0 0.0 0.00 0.00 0.00 99 1018.2
20260831074037 76 166 0.0 0.0 0.00 0.00 0.00 99 1018.2
20260831073532 76 166 0.0 0.0 0.00 0.00 0.00 99 1017.9
20260831073031 76 166 0.0 0.0 0.00 0.00 0.00 99 1018.2
20260831072527 76 166 0.0 0.0 0.00 0.00 0.00 99 1018.2
20260831072024 76 165 0.0 0.0 0.00 0.00 0.00 99 1018.6
20260831071522 76 165 0.0 0.0 0.00 0.00 0.00 99 1018.2
20260831071018 76 165 0.0 0.0 0.00 0.00 0.00 99 1018.6
20260831070516 76 165 0.0 0.0 0.00 0.00 0.00 99 1018.2
20260831070012 76 165 0.0 0.0 0.00 0.00 0.00 99 1018.6
20260831065509 76 165 0.0 0.0 0.00 0.00 0.00 99 1018.6
20260831065004 76 165 0.0 0.0 0.00 0.00 0.00 99 1018.6
20260831064459 76 165 0.0 0.0 0.00 0.00 0.00 99 1018.6
20260831063954 76 164 0.0 0.0 0.00 0.00 0.00 99 1018.2
20260831063450 76 178 0.0 0.0 0.00 0.00 0.00 99 1018.6
20260831062949 76 182 0.0 0.0 0.00 0.00 0.00 99 1018.6
20260831062445 76 178 0.0 0.0 0.00 0.00 0.00 99 1018.2
20260831061944 76 105 0.0 0.0 0.00 0.00 0.00 99 1018.6
20260831061442 76 105 0.0 0.0 0.00 0.00 0.00 99 1018.9
20260831060939 76 105 0.0 0.0 0.00 0.00 0.00 99 1018.6
20260831060433 76 105 0.0 0.0 0.00 0.00 0.00 99 1018.9
20260831055933 76 105 0.0 0.0 0.00 0.00 0.00 99 1018.9
20260831055428 76 105 0.0 0.0 0.00 0.00 0.00 99 1018.9
20260831054923 76 105 0.0 0.0 0.00 0.00 0.00 99 1018.9
20260831054418 76 105 0.0 0.0 0.00 0.00 0.00 99 1018.9
20260831053918 76 105 0.0 0.0 0.00 0.00 0.00 99 1018.9
20260831053415 76 105 0.0 0.0 0.00 0.00 0.00 99 1018.9
20260831052911 77 105 0.0 0.0 0.00 0.00 0.00 99 1018.9
20260831052410 77 105 0.0 0.0 0.00 0.00 0.00 99 1018.9
20260831051908 77 105 0.0 0.0 0.00 0.00 0.00 99 1018.9
20260831051406 77 104 0.0 0.0 0.00 0.00 0.00 99 1018.9
20260831050901 77 105 0.0 0.0 0.00 0.00 0.00 99 1018.9
20260831050356 77 104 0.0 0.0 0.00 0.00 0.00 99 1018.9
20260831045855 77 104 0.0 0.0 0.00 0.00 0.00 99 1018.9
20260831045349 77 104 0.0 0.0 0.00 0.00 0.00 99 1018.9
20260831044844 77 104 0.0 0.0 0.00 0.00 0.00 99 1018.9
20260831044339 77 104 0.0 0.0 0.00 0.00 0.00 99 1018.9
20260831043836 77 107 0.0 0.0 0.00 0.00 0.00 99 1018.9
20260831043335 77 121 0.0 0.0 0.00 0.00 0.00 99 1018.9
20260831042830 78 63 0.0 0.0 0.00 0.00 0.00 99 1019.2
20260831042329 78 88 0.0 0.0 0.00 0.00 0.00 99 1018.9
20260831041825 78 98 0.0 0.0 0.00 0.00 0.00 99 1018.9
20260831041324 78 89 0.0 0.0 0.00 0.00 0.00 99 1018.9
20260831040819 78 108 0.0 0.0 0.00 0.00 0.00 99 1018.9
20260831040318 78 132 0.0 0.0 0.00 0.00 0.00 99 1018.9
20260831035817 78 84 1.0 1.0 0.00 0.10 0.10 99 1018.9
20260831035315 78 90 0.0 0.0 0.00 0.10 0.10 99 1018.9
20260831034810 77 62 0.0 0.0 0.00 0.10 0.10 99 1019.2
20260831034306 77 121 0.0 0.0 0.00 0.10 0.10 99 1019.2
20260831033801 77 122 0.0 0.0 0.00 0.10 0.10 99 1019.2
20260831033301 77 122 0.0 0.0 0.00 0.10 0.10 99 1019.6
20260831032756 77 123 0.0 0.0 0.00 0.10 0.10 99 1019.2
20260831032251 77 123 0.0 0.0 0.00 0.10 0.10 99 1019.2
20260831031746 77 122 0.0 0.0 0.00 0.10 0.10 99 1019.2
20260831031245 78 122 0.0 0.0 0.00 0.10 0.10 99 1019.2
20260831030740 78 122 0.0 0.0 0.00 0.10 0.10 99 1019.2
20260831030238 78 122 0.0 0.0 0.00 0.10 0.10 99 1019.2
20260831025737 78 122 0.0 0.0 0.00 0.10 0.10 99 1019.6
20260831025233 78 122 0.0 0.0 0.00 0.10 0.10 99 1019.2
20260831024729 78 123 0.0 0.0 0.00 0.10 0.10 99 1019.2
20260831024227 78 123 0.0 0.0 0.00 0.10 0.10 99 1019.2
20260831023726 78 123 0.0 0.0 0.00 0.10 0.10 99 1019.2
20260831023225 79 123 0.0 0.0 0.00 0.10 0.10 99 1019.6
20260831022720 79 123 0.0 0.0 0.00 0.10 0.10 99 1019.2
20260831022214 79 112 0.0 0.0 0.00 0.10 0.10 99 1018.9
20260831021714 79 101 0.0 0.0 0.00 0.10 0.10 99 1019.2
20260831021209 79 120 0.0 0.0 0.00 0.10 0.10 99 1019.2
20260831020705 79 100 0.0 0.0 0.00 0.10 0.10 99 1019.2
20260831020205 79 126 0.0 0.0 0.00 0.10 0.10 99 1019.2
20260831015700 79 114 0.0 0.0 0.00 0.10 0.10 99 1019.6
20260831015155 79 88 0.0 1.0 0.00 0.10 0.10 99 1019.2
20260831014650 79 41 3.0 3.0 0.00 0.10 0.10 99 1018.9
20260831014145 79 67 2.0 2.0 0.00 0.10 0.10 99 1019.2
20260831013641 79 52 2.0 2.0 0.00 0.10 0.10 99 1019.2
20260831013140 79 67 0.0 1.0 0.00 0.10 0.10 99 1019.2
20260831012635 80 50 2.0 2.0 0.00 0.10 0.10 99 1019.2
20260831012125 80 69 0.0 0.0 0.00 0.10 0.10 99 1019.6
20260831011624 80 73 0.0 0.0 0.00 0.10 0.10 99 1019.6
20260831011120 80 70 0.0 0.0 0.00 0.10 0.10 99 1019.2
20260831010616 80 99 0.0 0.0 0.00 0.10 0.10 99 1019.6
20260831010111 79 120 0.0 0.0 0.00 0.10 0.10 99 1019.2
20260831005611 80 110 0.0 0.0 0.00 0.10 0.10 99 1019.6
20260831005106 80 100 0.0 0.0 0.00 0.10 0.10 99 1019.2
20260831004602 79 63 0.0 0.0 0.00 0.10 0.10 99 1019.2
20260831004057 80 105 0.0 0.0 0.00 0.10 0.10 99 1019.2
20260831003554 80 98 0.0 0.0 0.00 0.10 0.10 99 1019.2
20260831003049 80 140 0.0 0.0 0.00 0.10 0.10 99 1019.2
20260831002548 80 140 0.0 0.0 0.00 0.10 0.10 99 1019.2
20260831002043 79 133 0.0 0.0 0.00 0.10 0.10 99 1019.2
20260831001539 79 95 0.0 0.0 0.00 0.10 0.10 99 1018.9
20260831001035 79 94 0.0 0.0 0.00 0.10 0.10 99 1019.2
20260831000531 80 94 0.0 0.0 0.00 0.10 0.10 99 1019.2
20260831000030 80 94 0.0 0.0 0.00 0.10 0.10 99 1018.9
20260830235524 80 98 0.0 0.0 0.00 0.10 0.10 99 1018.9
20260830235019 80 98 0.0 0.0 0.00 0.10 0.10 99 1018.9
20260830234514 80 98 0.0 0.0 0.00 0.10 0.10 99 1018.9
20260830234009 80 98 0.0 0.0 0.00 0.10 0.10 99 1018.9
20260830233504 80 97 0.0 0.0 0.00 0.10 0.10 99 1018.9
20260830233000 80 97 0.0 0.0 0.00 0.10 0.10 98 1018.9
20260830232456 80 98 0.0 1.0 0.00 0.10 0.10 98 1018.9
20260830231952 80 105 1.0 1.0 0.00 0.10 0.10 97 1018.9
20260830231448 81 100 0.0 0.0 0.00 0.10 0.10 98 1018.9
20260830230946 81 55 0.0 0.0 0.00 0.10 0.10 98 1018.9
20260830230442 81 54 0.0 0.0 0.00 0.10 0.10 97 1018.9
20260830225941 81 52 2.0 2.0 0.00 0.10 0.10 96 1018.9
20260830225438 81 115 1.0 1.0 0.00 0.10 0.10 96 1018.9
20260830224937 81 60 1.0 2.0 0.00 0.10 0.10 96 1018.9
20260830224435 81 45 2.0 2.0 0.00 0.10 0.10 97 1018.6
20260830223932 81 47 5.0 5.0 0.00 0.10 0.10 96 1018.9
20260830223429 81 84 1.0 1.0 0.00 0.10 0.10 96 1018.6
20260830222928 81 77 3.0 3.0 0.00 0.10 0.10 97 1018.9
20260830222423 82 80 1.0 2.0 0.00 0.10 0.10 97 1018.9
20260830221919 81 119 1.0 1.0 0.00 0.10 0.10 97 1018.9
20260830221415 81 125 1.0 1.0 0.00 0.10 0.10 96 1018.9
20260830220911 82 71 2.0 2.0 0.00 0.10 0.10 97 1018.6
20260830220410 81 53 3.0 3.0 0.00 0.10 0.10 97 1018.6
20260830215908 81 176 1.0 1.0 0.00 0.10 0.10 98 1018.2
20260830215403 81 148 0.0 0.0 0.00 0.10 0.10 99 1018.9
20260830214857 81 155 0.0 0.0 0.00 0.10 0.10 99 1018.2
20260830214352 81 130 0.0 1.0 0.00 0.10 0.10 99 1018.2
20260830213847 81 115 0.0 1.0 0.00 0.10 0.10 99 1018.2
20260830213342 81 54 1.0 1.0 0.00 0.10 0.10 99 1018.2
20260830212838 80 81 1.0 1.0 0.00 0.10 0.10 99 1018.2
20260830212334 80 40 4.0 6.0 0.00 0.10 0.10 99 1018.2
20260830211833 80 96 1.0 1.0 0.00 0.10 0.10 99 1018.2
20260830211327 79 78 1.0 1.0 0.00 0.10 0.10 99 1018.2
20260830210823 79 41 2.0 3.0 0.00 0.10 0.10 99 1017.9
20260830210322 79 23 2.0 2.0 0.00 0.10 0.10 99 1018.2
20260830205820 78 60 3.0 3.0 0.00 0.10 0.10 99 1018.2
20260830205314 78 51 2.0 2.0 0.00 0.10 0.10 99 1018.6
20260830204809 78 85 1.0 1.0 0.00 0.10 0.10 99 1018.6
20260830204308 78 141 0.0 1.0 0.07 0.10 0.10 99 1018.6
20260830203804 78 104 2.0 2.0 0.07 0.10 0.10 99 1018.9
20260830203300 78 59 1.0 2.0 0.00 0.09 0.09 99 1018.9
20260830202759 78 165 1.0 1.0 0.00 0.09 0.09 99 1018.6
20260830202254 78 119 0.0 1.0 0.00 0.09 0.09 99 1018.6
20260830201749 78 65 1.0 1.0 0.05 0.09 0.09 99 1018.9
20260830201243 78 102 1.0 1.0 0.05 0.09 0.09 99 1018.6
20260830200739 78 77 3.0 3.0 0.07 0.08 0.08 99 1018.9
20260830200238 78 149 0.0 1.0 0.07 0.08 0.08 99 1018.9
20260830195734 78 136 1.0 1.0 0.07 0.07 0.07 99 1018.9